Milwaukee, WI

7:39 AM CST on February 08, 2016 (GMT -0600)
Gen Mitchell International

Weather History for KMKE - January, 2014

Change the Weather History Date:

Sunday, January 5, 2014

  Actual Average Record
Temperature  
Mean Temperature 9 °F 22 °F  
Max Temperature 22 °F 29 °F 53 °F (1998)
Min Temperature -4 °F 16 °F -24 °F (1884)
Degree Days  
Heating Degree Days 56 42  
Month to date heating degree days 263 210  
Since 1 July heating degree days 2996 2770  
Cooling Degree Days 0 0  
Month to date cooling degree days 0 0  
Year to date cooling degree days 0 0  
Moisture  
Dew Point -1 °F    
Average Humidity 60    
Maximum Humidity 68    
Minimum Humidity 51    
Precipitation  
Precipitation T in 0.06 in 0.75 in (1929)
Month to date precipitation 0.21 0.30  
Year to date precipitation 0.21 0.30  
Snow  
Snow T in 0.50 in 4.50 in (1910)
Month to date snowfall 7.4 2.3  
Since 1 July snowfall 28.7 15.6  
Snow Depth 8.00 in    
Sea Level Pressure  
Sea Level Pressure 30.08 in    
Wind  
Wind Speed 15 mph (NNW)    
Max Wind Speed 26 mph    
Max Gust Speed 35 mph    
Visibility 10 miles    
Events Snow    
T = Trace of Precipitation, MM = Missing Value Source: NWS Daily Summary

Daily Weather History Graph

Daily Weather History Graph

Search for Another Location

Airport or City:

Trip Planner

Search our weather history database for the weather conditions in past years. The results will help you decide how hot, cold, wet, or windy it might be!

Date:

Astronomy

Jan. 05, 2014 Rise Set
Actual Time 7:22 AM CST 4:31 PM CST
Civil Twilight 6:50 AM CST 5:03 PM CST
Nautical Twilight 6:15 AM CST 5:39 PM CST
Astronomical Twilight 5:40 AM CST 6:13 PM CST
Moon 9:56 AM CST (1/5) 10:07 PM CST (1/5)
Length of Visible Light 10h 12m
Length of Day
9h 08m
Waxing Crescent, 25% of the Moon is Illuminated
Jan 5
Waxing Crescent
Jan 7
First Quarter
Jan 15
Full
Jan 23
Last Quarter
Jan 30
New

Hourly Weather History & Observations

Time (CST) Temp. Windchill Dew Point Humidity Pressure Visibility Wind Dir Wind Speed Gust Speed Precip Events Conditions
12:52 AM 19.9 °F 9.3 °F 10.0 °F 65% 30.09 in 10.0 mi NNW 9.2 mph - N/A   Overcast
1:52 AM 19.0 °F 6.1 °F 9.0 °F 65% 30.11 in 10.0 mi North 12.7 mph - N/A   Overcast
2:52 AM 18.0 °F 4.8 °F 7.0 °F 62% 30.10 in 10.0 mi North 12.7 mph - N/A   Overcast
3:52 AM 17.1 °F 3.0 °F 5.0 °F 59% 30.11 in 10.0 mi North 13.8 mph - N/A   Overcast
4:52 AM 16.0 °F 2.3 °F 3.9 °F 59% 30.11 in 10.0 mi North 12.7 mph - N/A   Overcast
5:31 AM 15.1 °F 3.3 °F 3.9 °F 61% 30.08 in 10.0 mi North 9.2 mph - N/A   Overcast
5:52 AM 15.1 °F 2.5 °F 3.9 °F 61% 30.12 in 10.0 mi North 10.4 mph - N/A   Overcast
6:52 AM 14.0 °F -1.4 °F 3.0 °F 62% 30.13 in 10.0 mi North 15.0 mph 19.6 mph N/A   Overcast
7:52 AM 12.9 °F -2.2 °F 3.0 °F 65% 30.14 in 10.0 mi North 13.8 mph - N/A   Overcast
8:52 AM 12.9 °F -1.6 °F 3.0 °F 65% 30.16 in 10.0 mi NNW 12.7 mph - N/A   Overcast
9:52 AM 12.0 °F -3.4 °F 3.0 °F 67% 30.12 in 10.0 mi North 13.8 mph - N/A   Overcast
10:52 AM 12.9 °F -0.9 °F 3.0 °F 65% 30.14 in 10.0 mi NNW 11.5 mph - N/A   Overcast
11:52 AM 12.0 °F -3.4 °F 1.9 °F 64% 30.11 in 10.0 mi NNW 13.8 mph 19.6 mph N/A   Overcast
12:40 PM 10.9 °F -5.9 °F 1.0 °F 64% 30.01 in 10.0 mi North 16.1 mph - N/A   Overcast
12:52 PM 12.0 °F -5.6 °F 1.0 °F 61% 30.06 in 10.0 mi NNW 18.4 mph - N/A   Overcast
1:32 PM 10.9 °F -7.0 °F -0.0 °F 61% 30.02 in 4.0 mi NNW 18.4 mph 26.5 mph 0.00 in Snow Light Snow
1:52 PM 10.9 °F -5.4 °F -0.0 °F 61% 30.06 in 9.0 mi NNW 15.0 mph 21.9 mph 0.00 in   Overcast
2:52 PM 10.0 °F -6.5 °F -0.9 °F 61% 30.06 in 10.0 mi NNW 15.0 mph 23.0 mph N/A   Overcast
3:52 PM 9.0 °F -9.0 °F -2.0 °F 61% 30.04 in 8.0 mi NNW 17.3 mph 24.2 mph 0.00 in Snow Light Snow
4:52 PM 7.0 °F -12.1 °F -5.1 °F 58% 30.05 in 10.0 mi NNW 18.4 mph 23.0 mph 0.00 in   Overcast
5:52 PM 5.0 °F -14.7 °F -7.1 °F 58% 30.07 in 10.0 mi NNW 18.4 mph 25.3 mph N/A   Overcast
6:52 PM 3.9 °F -16.1 °F -9.0 °F 55% 30.07 in 10.0 mi NW 18.4 mph 26.5 mph N/A   Overcast
7:52 PM 1.9 °F -18.1 °F -9.9 °F 58% 30.06 in 10.0 mi NW 17.3 mph - N/A   Overcast
8:52 PM -0.9 °F -23.5 °F -13.0 °F 57% 30.06 in 10.0 mi NW 20.7 mph 28.8 mph N/A   Overcast
9:52 PM -0.9 °F -21.2 °F -14.1 °F 54% 30.05 in 10.0 mi NW 16.1 mph 27.6 mph N/A   Overcast
10:52 PM -2.0 °F -24.4 °F -14.1 °F 57% 30.05 in 10.0 mi NW 19.6 mph 32.2 mph N/A   Overcast
11:52 PM -4.0 °F -28.6 °F -15.0 °F 59% 30.04 in 10.0 mi WNW 23.0 mph 32.2 mph N/A   Overcast